(417492) = 2005 EJ95 = 2006 SX5 = 2013 PS37

Discovered at Socorro on 2005-03-07 by LINEAR.

Orbit

Orbit type: Phocaea

Note: WebGL enabled browser required.

epoch2023-09-13.0
epoch JD2460200.5
perihelion date2023-02-25.93564
perihelion JD2460001.43564
argument of perihelion (°)302.65989
ascending node (°)305.03341
inclination (°)21.23406
eccentricity0.1895097
perihelion distance (AU)1.8555069
Tisserand w.r.t. Jupiter3.5
ΔV w.r.t. Earth (km/sec)10.7
semimajor axis (AU)2.2893634
mean anomaly (°)56.64026
mean daily motion (°/day)0.28453240
aphelion distance (AU)2.723
period (years)3.46
P-vector [x]-0.33276322
P-vector [y]-0.69743107
P-vector [z]-0.63471138
Q-vector [x]0.89516583
Q-vector [y]-0.44528549
Q-vector [z]0.01997391
absolute magnitude16.5
phase slope0.15
uncertainty0
referenceMPEC 2024-A65
observations used723
oppositions12
arc length (days)6820
first opposition used2005
last opposition used2023
residual rms (arc-secs)0.73
perturbers coarse indicatorM-v
perturbers precise indicator003Ek
first observation date used2005-03-07.0
last observation date used2023-11-08.0
computer nameMPCLINUX
JD of orbit computation2457018.436482
perihelion JD uncertainty (days)2.1371E-04
argument of perihelion uncertainty (°)6.2058E-05
ascending node uncertainty (°)3.8656E-05
inclination uncertainty (°)1.1484E-05
eccentricity uncertainty 1.0458E-07
perihelion distance uncertainty (AU)2.6105E-07
Minimum Orbit Intersection Distances (in AU)
for orbit epoch: 2460200.5, reference: E2024-A34
Mercury1.40625
Venus1.17149
Earth0.90753
Mars0.51449
Jupiter2.57802
Saturn6.47131
Uranus16.135
Neptune27.3738

Observations

727 total observations over interval: 2005 03 07.20384 – 2023 11 08.102331
These data are available for download (format description).

Date (UT) J2000 RA J2000 Dec Magn Location Ref
2005 03 07.20384 09 33 29.20 -06 42 10.8 19.1   704 – Lincoln Laboratory ETS, New Mexico MPS 129207
2005 03 07.21521 09 33 28.33 -06 42 10.6 19.7   704 – Lincoln Laboratory ETS, New Mexico MPS 129207
2005 03 07.22659 09 33 27.49 -06 42 11.5 19.8   704 – Lincoln Laboratory ETS, New Mexico MPS 129207
2005 03 07.23796 09 33 26.70 -06 42 11.7 19.4   704 – Lincoln Laboratory ETS, New Mexico MPS 129207
2005 03 07.24934 09 33 25.78 -06 42 12.9 19.7   704 – Lincoln Laboratory ETS, New Mexico MPS 129207
2005 03 11.23337 09 28 54.13 -06 45 17.2 19.4   704 – Lincoln Laboratory ETS, New Mexico MPS 129207
2005 03 11.25668 09 28 52.68 -06 45 19.7 19.7   704 – Lincoln Laboratory ETS, New Mexico MPS 129207
2005 03 11.27106 09 28 51.69 -06 45 20.9 19.4   704 – Lincoln Laboratory ETS, New Mexico MPS 129207
2005 03 11.28352 09 28 50.85 -06 45 21.0 19.8   704 – Lincoln Laboratory ETS, New Mexico MPS 129207
2005 03 12.23896 09 27 49.71 -06 45 44.9 19.5   704 – Lincoln Laboratory ETS, New Mexico MPS 129207
2005 03 12.25043 09 27 48.93 -06 45 45.8 19.7   704 – Lincoln Laboratory ETS, New Mexico MPS 129207
2005 03 12.26257 09 27 48.15 -06 45 45.6 19.6   704 – Lincoln Laboratory ETS, New Mexico MPS 129207
2005 03 13.18514 09 26 50.86 -06 46 03.6 18.8   703 – Catalina Sky Survey MPS 129207
2005 03 13.18567 09 26 50.77 -06 46 02.0 19.1   703 – Catalina Sky Survey MPS 129207
2005 03 13.19168 09 26 50.46 -06 46 04.1 19.1   703 – Catalina Sky Survey MPS 129207
2005 03 13.19221 09 26 50.38 -06 46 02.6 17.8   703 – Catalina Sky Survey MPS 129207
2005 03 13.19822 09 26 50.02 -06 46 02.9 18.9   703 – Catalina Sky Survey MPS 129207
2005 03 13.19875 09 26 49.96 -06 46 03.9 19.9   703 – Catalina Sky Survey MPS 129207
2005 03 13.20475 09 26 49.54 -06 46 03.1 19.2   703 – Catalina Sky Survey MPS 129207
2005 03 13.20528 09 26 49.57 -06 46 02.7 18.6   703 – Catalina Sky Survey MPS 129207
2005 03 14.15880 09 25 51.94 -06 46 15.4 19.4   704 – Lincoln Laboratory ETS, New Mexico MPS 129207
2005 03 14.16979 09 25 51.19 -06 46 14.8 19.8   704 – Lincoln Laboratory ETS, New Mexico MPS 129207
2005 03 14.18076 09 25 50.59 -06 46 14.5 19.9   704 – Lincoln Laboratory ETS, New Mexico MPS 129207
2005 03 14.19175 09 25 49.90 -06 46 14.8 19.9   704 – Lincoln Laboratory ETS, New Mexico MPS 129207
2005 03 14.20331 09 25 49.24 -06 46 15.0 20.0   704 – Lincoln Laboratory ETS, New Mexico MPS 129207
2006 09 16.21115 23 16 51.96 +27 06 58.6 18.9 V 703 – Catalina Sky Survey MPS 179588
2006 09 16.21859 23 16 51.42 +27 06 57.2 19.2 V 703 – Catalina Sky Survey MPS 179588
2006 09 16.22598 23 16 50.84 +27 06 56.5 19.7 V 703 – Catalina Sky Survey MPS 179588
2006 09 16.23338 23 16 50.23 +27 06 55.0 19.6 V 703 – Catalina Sky Survey MPS 179588
2006 09 17.16022 23 15 40.67 +27 05 34.4 19.4   H55 – Astronomical Research Observatory, Charleston MPS 179588
2006 09 17.16410 23 15 40.41 +27 05 34.3 19.3   H55 – Astronomical Research Observatory, Charleston MPS 179588
2006 09 17.18051 23 15 39.14 +27 05 32.6 19.4   H55 – Astronomical Research Observatory, Charleston MPS 179588
2006 09 17.18877 23 15 38.72 +27 05 33.3 19.4 R 673 – Table Mountain Observatory, Wrightwood MPS 179588
2006 09 17.19572 23 15 38.19 +27 05 32.5   673 – Table Mountain Observatory, Wrightwood MPS 179588
2006 09 17.20023 23 15 37.83 +27 05 32.1   673 – Table Mountain Observatory, Wrightwood MPS 179588
2006 09 17.20660 23 15 37.36 +27 05 31.3   673 – Table Mountain Observatory, Wrightwood MPS 179588
2006 09 17.20748 23 15 37.22 +27 05 31.2 19.6 V 703 – Catalina Sky Survey MPS 179588
2006 09 17.22046 23 15 36.28 +27 05 30.5 19.3 V 703 – Catalina Sky Survey MPS 179588
2006 09 17.22987 23 15 35.56 +27 05 29.3 19.9 R 448 – Desert Moon Observatory, Las Cruces MPS 179588
2006 09 17.23344 23 15 35.28 +27 05 29.4 19.6 V 703 – Catalina Sky Survey MPS 179588
2006 09 17.24203 23 15 34.57 +27 05 28.2 20.2 R 448 – Desert Moon Observatory, Las Cruces MPS 179588
2006 09 17.24638 23 15 34.23 +27 05 27.6 19.9 V 703 – Catalina Sky Survey MPS 179588
2006 09 17.25423 23 15 33.68 +27 05 26.9 19.9 R 448 – Desert Moon Observatory, Las Cruces MPS 179588
2006 09 17.27356 23 15 32.20 +27 05 23.7 19.6 R 682 – Kanab MPS 179588
2006 09 17.29528 23 15 30.48 +27 05 22.4 19.6 R 682 – Kanab MPS 179588
2006 09 17.31693 23 15 28.83 +27 05 20.5 19.6 R 682 – Kanab MPS 179588
2006 09 18.17067 23 14 25.51 +27 03 48.5 19.4 V 703 – Catalina Sky Survey MPS 179588
2006 09 18.17909 23 14 24.79 +27 03 46.4 19.5 V 703 – Catalina Sky Survey MPS 179588
2006 09 18.18748 23 14 24.18 +27 03 46.1 19.6 V 703 – Catalina Sky Survey MPS 179588
2006 09 18.19584 23 14 23.56 +27 03 45.7 19.5 V 703 – Catalina Sky Survey MPS 179588
2006 09 18.21084 23 14 22.30 +27 03 42.9 19.2 R 734 – Farpoint Observatory, Eskridge MPS 179588
2006 09 18.21523 23 14 21.97 +27 03 42.7 19.9 R 734 – Farpoint Observatory, Eskridge MPS 179588
2006 09 18.21961 23 14 21.66 +27 03 42.1 19.7 R 734 – Farpoint Observatory, Eskridge MPS 179588
2006 09 18.22401 23 14 21.26 +27 03 42.1 19.4 R 734 – Farpoint Observatory, Eskridge MPS 179588
2006 09 18.24387 23 14 19.91 +27 03 39.5 19.5 R 673 – Table Mountain Observatory, Wrightwood MPS 179588
2006 09 18.24921 23 14 19.49 +27 03 39.6 19.7 R 854 – Sabino Canyon Observatory, Tucson MPS 179588
2006 09 18.25035 23 14 19.40 +27 03 38.8   673 – Table Mountain Observatory, Wrightwood MPS 179588
2006 09 18.25513 23 14 19.05 +27 03 38.8 19.7 R 854 – Sabino Canyon Observatory, Tucson MPS 179588
2006 09 18.25891 23 14 18.78 +27 03 37.9   673 – Table Mountain Observatory, Wrightwood MPS 179588
2006 09 18.26101 23 14 18.57 +27 03 38.0 19.7 R 854 – Sabino Canyon Observatory, Tucson MPS 179588
2006 09 18.26319 23 14 18.43 +27 03 37.4   673 – Table Mountain Observatory, Wrightwood MPS 179588
2006 09 18.27347 23 14 17.59 +27 03 36.3 19.7 R 682 – Kanab MPS 179588
2006 09 18.29536 23 14 15.92 +27 03 33.6 19.5 R 682 – Kanab MPS 179588
2006 09 18.31724 23 14 14.24 +27 03 31.1 19.5 R 682 – Kanab MPS 179588
2009 05 23.76562 19 36 23.65 -47 54 56.9 19.2 V E12 – Siding Spring Survey MPS 502343
2009 05 23.77896 19 36 23.54 -47 54 55.5 19.0 V E12 – Siding Spring Survey MPS 502343
2009 05 23.79223 19 36 23.29 -47 54 53.7 19.2 V E12 – Siding Spring Survey MPS 502343
2012 02 18.34490 10 39 31.82 -14 46 03.8 18.9 V 703 – Catalina Sky Survey MPS 502343
2012 02 18.35156 10 39 31.28 -14 46 08.9 19.3 V 703 – Catalina Sky Survey MPS 502343
2012 02 18.35839 10 39 30.85 -14 46 11.9 18.9 V 703 – Catalina Sky Survey MPS 502343
2012 02 18.36523 10 39 30.38 -14 46 16.5 18.2 V 703 – Catalina Sky Survey MPS 502343
2012 02 19.36659 10 38 13.77 -14 53 46.5 17.7 H W91 – VHS-VISTA, Cerro Paranal MPS 678938
2012 02 19.36942 10 38 13.54 -14 53 47.6 17.6 H W91 – VHS-VISTA, Cerro Paranal MPS 678938
2012 02 19.37102 10 38 13.41 -14 53 48.4 18.0 K W91 – VHS-VISTA, Cerro Paranal MPS 678938
2012 02 19.37382 10 38 13.20 -14 53 49.5 17.6 K W91 – VHS-VISTA, Cerro Paranal MPS 678938
2012 02 19.37540 10 38 13.08 -14 53 50.3 18.1 J W91 – VHS-VISTA, Cerro Paranal MPS 678938
2012 02 19.38038 10 38 12.69 -14 53 52.5 18.1 J W91 – VHS-VISTA, Cerro Paranal MPS 678938
2012 02 19.38186 10 38 12.58 -14 53 53.1 18.9 Y W91 – VHS-VISTA, Cerro Paranal MPS 678938
2012 02 19.38442 10 38 12.37 -14 53 54.2 18.7 Y W91 – VHS-VISTA, Cerro Paranal MPS 678938
2012 03 15.35016 10 04 52.46 -16 23 28.5 18.9 V 703 – Catalina Sky Survey MPS 476228
2012 03 15.35428 10 04 52.17 -16 23 28.3 18.9 V 703 – Catalina Sky Survey MPS 476228
2012 03 15.35835 10 04 51.92 -16 23 29.0 19.3 V 703 – Catalina Sky Survey MPS 476228
2012 03 15.36243 10 04 51.49 -16 23 27.3 18.8 V 703 – Catalina Sky Survey MPS 476228
2012 03 24.19472 09 55 15.24 -16 13 56.3 19.3 V 703 – Catalina Sky Survey MPS 476228
2012 03 24.20199 09 55 14.70 -16 13 56.6 18.9 V 703 – Catalina Sky Survey MPS 476228
2012 03 24.20927 09 55 14.26 -16 13 54.6 18.4 V 703 – Catalina Sky Survey MPS 476228
2012 03 24.21659 09 55 13.83 -16 13 53.4 19.2 V 703 – Catalina Sky Survey MPS 476228
2013 08 12.28420 00 27 58.38 +28 46 08.4 20.0 r I41 – Palomar Mountain--ZTF MPS 473806
2013 08 12.30865 00 27 57.78 +28 46 25.8 20.2 r I41 – Palomar Mountain--ZTF MPS 473806
